Flag for Canada Weather past 2 weeks in Maple Ridge, British Columbia, Canada

Now
67 °F

Mild.


Feels Like: 67 °F
Forecast: 53 / 75 °F
Wind: 2 mph from South

Location: P. Meadows Coastal Station

Current Time: Jul 26, 2014 at 11:08:29 AM

Latest Report: Jul 26, 2014 at 10:00 AM


Visibility: N/A

Pressure: 30.16 "Hg

Humidity: 63%

Dew point: 54 °F

Location of Maple RidgeLocation

Historic Weather in Maple Ridge — Graph

°F

Maple Ridge temperature yesterday

Maximum temperature yesterday: 73 °F (at 4:00 PM)
Minimum temperature yesterday: 54 °F (at 6:00 AM)
Average temperature yesterday: 64 °F

Past Weeks' High & Low Weather Summary

 TemperatureHumidityPressure
High92 °F (Jul 13, 5:00 PM)96% (Jul 13, 6:00 AM)30.19 "Hg (Jul 13, 6:00 AM)
Low52 °F (Jul 22, 5:00 AM)27% (Jul 13, 5:00 PM)29.89 "Hg (Jul 16, 9:00 PM)
Average67 °F70%30.02 "Hg
* Reported Jul 11 10:00 AM — Jul 26 10:00 AM, Maple Ridge, Weather by CustomWeather, © 2014

Note: Actual official high and low records may vary slightly from our data, if they occured in-between our weather recording intervals... More about our weather records

Advertising

Maple Ridge weather history for previous 24 hours

 ConditionsComfort  
Time TempWeatherWind HumidityBarometerVisibility
10:00 AM
Jul 26
67 °FMild.2 mph63%30.16 "HgN/A
9:00 AM64 °FMild.1 mph79%30.17 "HgN/A
8:00 AM60 °FCool.1 mph85%30.16 "HgN/A
7:00 AM56 °FCool.No wind92%30.15 "HgN/A
6:00 AM54 °FCool.No wind95%30.14 "HgN/A
5:00 AM54 °FCool.1 mph95%30.14 "HgN/A
4:00 AM55 °FCool.1 mph91%30.12 "HgN/A
3:00 AM57 °FCool.2 mph90%30.12 "HgN/A
2:00 AM56 °FCool.1 mph89%30.11 "HgN/A
1:00 AM56 °FCool.2 mph89%30.11 "HgN/A
12:00 AM57 °FCool.1 mph88%30.10 "HgN/A
11:00 PM
Jul 25
60 °FCool.No wind79%30.09 "HgN/A
10:00 PM62 °FCool.1 mph71%30.09 "HgN/A
9:00 PM67 °FMild.2 mph54%30.08 "HgN/A
8:00 PM70 °FMild.3 mph55%30.08 "HgN/A
7:00 PM72 °FMild.5 mph47%30.08 "HgN/A
6:00 PM73 °FMild.5 mph47%30.10 "HgN/A
5:00 PM73 °FMild.5 mph48%30.11 "HgN/A
4:00 PM73 °FMild.5 mph50%30.12 "HgN/A
3:00 PM72 °FMild.3 mph48%30.13 "HgN/A
2:00 PM71 °FMild.3 mph46%30.14 "HgN/A
1:00 PM69 °FMild.3 mph50%30.14 "HgN/A
12:00 PM67 °FMild.6 mph55%30.15 "HgN/A
11:00 AM66 °FMild.3 mph60%30.16 "HgN/A
Weather by CustomWeather, © 2014

See weather overviewHow to use our weather pages